Hourly Data Report for October 28, 2015

All times are specified in Local Standard Time (LST). Add 1 hour to adjust for Daylight Saving Time where and when it is observed.

TORONTO INTL A
ONTARIO

43°40'36.000" N
79°37'50.000" W
173.40 m
6158731
71624
YYZ

Download Data

Hourly Data (October 2015)
Hourly Data Report for October 28, 2015
Temp Definition
°C
Dew Point Temp Definition
°C
Rel Hum Definition
%
Wind Dir Definition
10's deg

Wind Spd Definition
km/h
Visibility Definition
km
Stn Press Definition
kPa
Hmdx Definition


Wind Chill Definition


Weather Definition


TIME
00:00 Legend Double Dagger 9.8 4.4 69 11 21 24.1 100.30     LegendNANA
01:00 Legend Double Dagger 10.6 5.2 69 11 29 24.1 100.17     Cloudy
02:00 Legend Double Dagger 10.6 5.6 71 11 25 24.1 100.08     LegendNANA
03:00 Legend Double Dagger 9.1 7.1 87 11 25 24.1 99.96     Rain
04:00 Legend Double Dagger 8.8 7.4 91 10 20 19.3 99.83     Rain
05:00 Legend Double Dagger 9.0 7.6 91 9 19 12.9 99.64     Rain
06:00 Legend Double Dagger 9.1 8.0 93 10 24 9.7 99.52     Rain
07:00 Legend Double Dagger 9.3 8.2 93 9 24 8.1 99.33     Rain,Fog
08:00 Legend Double Dagger 9.5 8.4 93 10 34 4.0 99.14     Heavy Rain,Fog
09:00 Legend Double Dagger 9.6 8.5 93 10 34 4.8 99.02     Moderate Rain,Fog
10:00 Legend Double Dagger 9.7 8.6 93 10 32 6.4 98.85     Rain,Fog
11:00 Legend Double Dagger 9.9 8.8 93 10 25 8.1 98.67     Rain,Fog
12:00 Legend Double Dagger 10.5 9.6 94 9 27 8.1 98.48     Rain,Fog
13:00 Legend Double Dagger 11.0 10.2 95 9 21 6.4 98.27     Rain,Fog
14:00 Legend Double Dagger 11.3 10.5 95 10 20 6.4 98.13     Rain,Fog
15:00 Legend Double Dagger 11.9 11.1 95 10 21 6.4 97.98     Rain,Fog
16:00 Legend Double Dagger 13.1 12.3 95 12 18 6.4 97.91     Rain,Fog
17:00 Legend Double Dagger 13.5 12.7 95 12 18 8.1 97.81     Drizzle,Fog
18:00 Legend Double Dagger 13.8 13.0 95 14 14 6.4 97.74     Drizzle,Fog
19:00 Legend Double Dagger 13.7 13.1 96 15 12 6.4 97.67     Drizzle,Fog
20:00 Legend Double Dagger 13.7 13.1 96 16 10 0.4 97.61     Drizzle,Fog
21:00 Legend Double Dagger 13.8 13.2 96 17 12 9.7 97.58     Fog
22:00 Legend Double Dagger 14.0 13.4 96 18 8 19.3 97.50     Mostly Cloudy
23:00 Legend Double Dagger 13.2 12.6 96 15 9 19.3 97.48     LegendNANA

Notes on Data Quality.

Legend

  • E = Estimated
  • M = Missing
  • NA = Not Available
  • ‡ = Partner data that is not subject to review by the National Climate Archives
Date modified: